TimeMDT,TemperatureF,Dew PointF,Humidity,Sea Level PressureIn,VisibilityMPH,Wind Direction,Wind SpeedMPH,Gust SpeedMPH,PrecipitationIn,Events,Conditions,WindDirDegrees,DateUTC
2:50 AM,79,72,75,29.81,2,SE,2.2,,,,,140,2012-10-07 08:50:00
5:44 AM,69.8,66.2,88,29.88,10.0,SSE,10.4,-,N/A,,Clear,160,2012-10-07 11:44:00
5:50 AM,76,66,63,29.83,2,South,4.5,,,,,180,2012-10-07 11:50:00
6:41 AM,68.0,64.4,88,29.85,10.0,South,9.2,-,N/A,,Clear,180,2012-10-07 12:41:00
7:43 AM,68.0,64.4,88,29.87,10.0,South,6.9,-,N/A,,Clear,180,2012-10-07 13:43:00
8:48 AM,71.6,64.4,78,29.94,10.0,South,9.2,-,N/A,,Clear,170,2012-10-07 14:48:00
8:50 AM,80,65,51,29.87,12,South,4.5,,,,,180,2012-10-07 14:50:00
9:42 AM,78.8,64.4,61,29.90,12.0,South,6.9,-,N/A,,Clear,190,2012-10-07 15:42:00
10:49 AM,86.0,53.6,33,29.90,12.0,South,5.8,-,N/A,,Clear,190,2012-10-07 16:49:00
11:40 AM,87.8,53.6,31,29.94,12.0,South,8.1,-,N/A,,Clear,180,2012-10-07 17:40:00
11:50 AM,92,53,18,29.88,19,South,4.5,,,,,180,2012-10-07 17:50:00
12:40 PM,91.4,51.8,26,29.87,12.0,SW,6.9,-,N/A,,Clear,230,2012-10-07 18:40:00
1:43 PM,93.2,50.0,23,29.84,12.0,SW,4.6,-,N/A,,Clear,230,2012-10-07 19:43:00
2:40 PM,95.0,50.0,22,29.86,12.0,SSW,5.8,-,N/A,,Clear,200,2012-10-07 20:40:00
2:50 PM,100,57,15,29.81,19,South,6.7,,,,,180,2012-10-07 20:50:00
3:40 PM,96.8,41.0,15,29.79,12.0,SSW,6.9,-,N/A,,Clear,200,2012-10-07 21:40:00
4:45 PM,96.8,39.2,14,29.79,10.0,SW,6.9,-,N/A,,Clear,230,2012-10-07 22:45:00
5:50 PM,98,69,30,29.79,19,NW,2.2,,,,,320,2012-10-07 23:50:00
5:52 PM,93.2,48.2,21,29.91,10.0,WSW,9.2,-,N/A,,Clear,240,2012-10-07 23:52:00
6:53 PM,87.8,51.8,29,29.81,10.0,Calm,Calm,-,N/A,,Clear,0,2012-10-08 00:53:00
7:45 PM,82.4,57.2,42,29.83,10.0,SW,5.8,-,N/A,,Clear,230,2012-10-08 01:45:00
8:42 PM,78.8,62.6,57,29.96,10.0,SSE,6.9,-,N/A,,Clear,160,2012-10-08 02:42:00
8:50 PM,85,65,41,29.85,2,SW,2.2,,,,,230,2012-10-08 02:50:00
9:41 PM,75.2,64.4,69,29.87,10.0,South,6.9,-,N/A,,Clear,180,2012-10-08 03:41:00
10:42 PM,73.4,68.0,83,29.88,10.0,SSE,6.9,-,N/A,,Clear,150,2012-10-08 04:42:00
11:50 PM,78,71,74,29.88,2,South,4.5,,,,,180,2012-10-08 05:50:00